Location: Cahas Mountain Overlook
(37.0833°N, 80.1000°W)
Time: 17:13:19
(UTC-04:00)

STRAND 1 - Visible Passes

Search period start: 31 March 2023 00:00
Search period end: 10 April 2023 00:00
Orbit: 766 x 780 km, 98.4° (Epoch: 31 March)

Date Brightness Start Highest point End Pass type
(mag) Time Alt. Az. Time Alt. Az. Time Alt. Az.
31 Mar ? 06:23:50 10° ESE 06:28:00 26° ENE 06:32:10 10° NNE visible
31 Mar ? 20:14:05 10° N 20:19:11 83° WNW 20:24:16 10° SSW visible
01 Apr ? 05:52:00 10° E 05:54:00 12° ENE 05:56:00 10° NE visible
01 Apr ? 21:19:56 10° NNW 21:23:32 20° WNW 21:27:08 10° WSW visible
02 Apr ? 20:44:40 10° N 20:49:25 41° WNW 20:54:09 10° SW visible
03 Apr ? 06:19:58 10° ESE 06:23:58 24° ENE 06:27:58 10° NNE visible
03 Apr ? 20:10:00 10° NNE 20:15:07 90° ESE 20:20:12 10° SSW visible
04 Apr ? 05:48:32 10° ENE 05:49:59 11° ENE 05:51:25 10° NE visible
04 Apr ? 21:15:43 10° NNW 21:19:30 22° WNW 21:23:17 10° WSW visible
05 Apr ? 20:40:31 10° N 20:45:21 45° WNW 20:50:10 10° SW visible
06 Apr ? 06:16:06 10° ESE 06:19:55 22° ENE 06:23:45 10° NNE visible
06 Apr ? 20:05:55 10° NNE 20:11:02 83° ESE 20:16:07 10° SSW visible
06 Apr ? 21:48:06 10° NW 21:49:27 11° WNW 21:50:47 10° WNW visible
07 Apr ? 05:45:37 10° ENE 05:45:57 10° ENE 05:46:17 10° ENE visible
07 Apr ? 21:11:29 10° NNW 21:15:27 23° WNW 21:19:24 10° WSW visible
08 Apr ? 20:36:23 10° N 20:41:16 49° WNW 20:46:09 10° SW visible
09 Apr ? 06:12:15 10° ESE 06:15:52 20° ENE 06:19:30 10° NNE visible
09 Apr ? 21:43:29 10° NW 21:45:23 12° WNW 21:47:19 10° W visible
